This is the latest recevied weather packets stored in our database for station/object K3JAR-3. If no packets are shown the sender has not sent any weather packets the latest 10 day(s).
| Time | Temp. | Humidity | Pressure | Rain* | Wind** | Luminosity | Snow |
|---|---|---|---|---|---|---|---|
| 1777621230 | 15° C | 84% | 1017.5 hPa | 0 mm | - | - | - |
| 1777618828 | 15° C | 83% | 1018 hPa | 0 mm | - | - | - |
| 1777616426 | 15.56° C | 83% | 1018.2 hPa | 0 mm | - | - | - |
| 1777612217 | 15.56° C | 82% | 1018.4 hPa | 0 mm | - | - | - |
| 1777608616 | 15.56° C | 84% | 1018.3 hPa | 0 mm | - | - | - |
| 1777607430 | 15.56° C | 84% | 1017.8 hPa | 0 mm | - | - | - |
| 1777605664 | 16.11° C | 85% | 1017.7 hPa | 0 mm | - | - | - |
| 1777604432 | 15.56° C | 86% | 1016.8 hPa | 0 mm | - | - | - |
| 1777596649 | 16.11° C | 87% | 1016.1 hPa | 0 mm | - | - | - |
| 1777591217 | 16.11° C | 87% | 1014.9 hPa | 0 mm | - | - | - |
| 1777588846 | 16.11° C | 89% | 1014.8 hPa | 0 mm | - | - | - |
| 1777588230 | 15.56° C | 90% | 1015 hPa | 0 mm | - | - | - |
| 1777587615 | 15.56° C | 90% | 1015 hPa | 0 mm | - | - | - |
| 1777584041 | 15.56° C | 95% | 1015.6 hPa | 0 mm | - | - | - |
| 1777582267 | 15.56° C | 95% | 1015.3 hPa | 0 mm | - | - | - |
| 1777574419 | 16.11° C | 99% | 1014.7 hPa | 0 mm | - | - | - |
| 1777569620 | 15.56° C | 99% | 1016.3 hPa | 1.02 mm | - | - | - |
| 1777567217 | 15.56° C | 99% | 1017.8 hPa | 1.52 mm | - | - | - |
| 1777565429 | 15.56° C | 99% | 1017.5 hPa | 0.76 mm | - | - | - |
| 1777562430 | 15.56° C | 95% | 1017.5 hPa | 0 mm | - | - | - |
| 1777560623 | 16.11° C | 92% | 1016.8 hPa | 0 mm | - | - | - |
| 1777555224 | 16.11° C | 91% | 1015.9 hPa | 0 mm | - | - | - |
| 1777549843 | 15.56° C | 95% | 1015.6 hPa | 0 mm | - | - | - |
| 1777545017 | 16.11° C | 91% | 1015.6 hPa | 0 mm | - | - | - |
| 1777542018 | 17.22° C | 89% | 1015.7 hPa | 0 mm | - | - | - |
* Rain latest hour (hover to see other rain measurements)
** Current wind speed in m/s (hover to see current wind gust speed)